| time (UTC) | temp C | wind direction | speed KPH | gust KPH | rain 1hr cm | rain 24hr cm | rain mn cm | humidity % | barometer mb |
| 20260506113516 | 13 | 293 | 12.9 | 22.5 | 0.00 | 0.00 | 0.00 | 81 | 1011.8 |
| 20260506112516 | 13 | 315 | 11.3 | 22.5 | 0.00 | 0.00 | 0.00 | 81 | 1011.7 |
| 20260506111517 | 13 | 293 | 9.7 | 17.7 | 0.00 | 0.00 | 0.00 | 81 | 1011.6 |
| 20260506110537 | 13 | 315 | 11.3 | 19.3 | 0.00 | 0.00 | 0.00 | 81 | 1011.4 |
| 20260506105517 | 13 | 293 | 11.3 | 22.5 | 0.00 | 0.00 | 0.00 | 81 | 1011.6 |
| 20260506104536 | 13 | 315 | 14.5 | 22.5 | 0.00 | 0.00 | 0.00 | 81 | 1011.1 |
| 20260506103517 | 14 | 315 | 11.3 | 19.3 | 0.00 | 0.00 | 0.00 | 81 | 1011.0 |
| 20260506102516 | 14 | 315 | 9.7 | 16.1 | 0.00 | 0.00 | 0.00 | 81 | 1010.8 |
| 20260506101517 | 14 | 315 | 6.4 | 14.5 | 0.00 | 0.00 | 0.00 | 81 | 1010.6 |
| 20260506100516 | 14 | 293 | 9.7 | 16.1 | 0.00 | 0.00 | 0.00 | 80 | 1010.5 |
| 20260506095516 | 14 | 293 | 9.7 | 17.7 | 0.00 | 0.00 | 0.00 | 80 | 1010.4 |
| 20260506094536 | 15 | 293 | 12.9 | 22.5 | 0.00 | 0.00 | 0.00 | 80 | 1010.2 |
| 20260506093516 | 15 | 293 | 11.3 | 17.7 | 0.00 | 0.00 | 0.00 | 80 | 1010.1 |
| 20260506092536 | 15 | 293 | 9.7 | 16.1 | 0.00 | 0.00 | 0.00 | 80 | 1010.1 |
| 20260506091556 | 15 | 315 | 4.8 | 12.9 | 0.00 | 0.00 | 0.00 | 81 | 1010.0 |
| 20260506090517 | 15 | 315 | 8.0 | 17.7 | 0.00 | 0.00 | 0.00 | 81 | 1010.1 |
| 20260506085515 | 15 | 293 | 9.7 | 20.9 | 0.00 | 0.00 | 0.00 | 80 | 1009.9 |
| 20260506084515 | 15 | 315 | 6.4 | 14.5 | 0.00 | 0.00 | 0.00 | 80 | 1009.9 |
| 20260506083515 | 16 | 293 | 9.7 | 17.7 | 0.00 | 0.00 | 0.00 | 80 | 1009.9 |
| 20260506082515 | 16 | 293 | 11.3 | 16.1 | 0.00 | 0.00 | 0.00 | 80 | 1009.6 |
| 20260506081515 | 16 | 315 | 8.0 | 16.1 | 0.00 | 0.00 | 0.00 | 81 | 1009.6 |
| 20260506080515 | 16 | 315 | 9.7 | 17.7 | 0.00 | 0.00 | 0.00 | 81 | 1009.7 |
| 20260506072515 | 16 | 23 | 4.8 | 9.7 | 0.00 | 0.00 | 0.00 | 81 | 1009.3 |
| 20260506071515 | 16 | 338 | 6.4 | 9.7 | 0.00 | 0.00 | 0.00 | 81 | 1009.3 |
| 20260506070555 | 16 | 315 | 8.0 | 16.1 | 0.00 | 0.00 | 0.00 | 81 | 1009.1 |
| 20260506062515 | 16 | 338 | 9.7 | 17.7 | 0.00 | 0.00 | 0.00 | 81 | 1009.1 |
| 20260506061535 | 17 | 338 | 11.3 | 19.3 | 0.00 | 0.00 | 0.00 | 80 | 1009.1 |
| 20260506060515 | 17 | 315 | 11.3 | 20.9 | 0.00 | 0.00 | 0.00 | 80 | 1009.1 |
| 20260506050515 | 18 | 315 | 11.3 | 22.5 | 0.00 | 0.00 | 0.00 | 78 | 1009.2 |
| 20260506044515 | 19 | 315 | 12.9 | 20.9 | 0.00 | 0.00 | 0.00 | 77 | 1008.8 |
| 20260506043517 | 19 | 315 | 9.7 | 16.1 | 0.00 | 0.00 | 0.00 | 77 | 1008.9 |
| 20260506042517 | 19 | 293 | 9.7 | 16.1 | 0.00 | 0.00 | 0.00 | 77 | 1009.1 |
| 20260506041517 | 20 | 315 | 9.7 | 17.7 | 0.00 | 0.00 | 0.00 | 76 | 1009.0 |
| 20260506040557 | 20 | 315 | 12.9 | 19.3 | 0.00 | 0.00 | 0.00 | 75 | 1009.0 |
| 20260506035537 | 20 | 315 | 11.3 | 17.7 | 0.00 | 0.00 | 0.00 | 75 | 1008.8 |
| 20260506034537 | 20 | 293 | 9.7 | 19.3 | 0.00 | 0.00 | 0.00 | 74 | 1008.5 |
| 20260506033515 | 20 | 293 | 12.9 | 20.9 | 0.00 | 0.00 | 0.00 | 73 | 1008.5 |
| 20260506032517 | 20 | 315 | 12.9 | 20.9 | 0.00 | 0.00 | 0.00 | 73 | 1008.0 |
| 20260506031537 | 21 | 315 | 11.3 | 17.7 | 0.00 | 0.00 | 0.00 | 73 | 1007.7 |
| 20260506030517 | 21 | 315 | 11.3 | 22.5 | 0.00 | 0.00 | 0.00 | 72 | 1007.5 |
| 20260506025517 | 21 | 315 | 12.9 | 20.9 | 0.00 | 0.00 | 0.00 | 72 | 1007.4 |
| 20260506024517 | 21 | 315 | 9.7 | 17.7 | 0.00 | 0.00 | 0.00 | 72 | 1007.3 |
| 20260506023517 | 22 | 293 | 14.5 | 25.7 | 0.00 | 0.00 | 0.00 | 71 | 1007.2 |
| 20260506022515 | 22 | 315 | 12.9 | 22.5 | 0.00 | 0.00 | 0.00 | 71 | 1006.9 |
| 20260506021517 | 23 | 315 | 9.7 | 19.3 | 0.00 | 0.00 | 0.00 | 70 | 1006.8 |
| 20260506020517 | 23 | 293 | 9.7 | 17.7 | 0.00 | 0.00 | 0.00 | 70 | 1006.6 |
| 20260506015517 | 23 | 315 | 11.3 | 19.3 | 0.00 | 0.00 | 0.00 | 69 | 1006.2 |
| 20260506014515 | 23 | 315 | 11.3 | 19.3 | 0.00 | 0.00 | 0.00 | 69 | 1006.0 |
| 20260506013517 | 24 | 293 | 9.7 | 16.1 | 0.00 | 0.00 | 0.00 | 69 | 1005.7 |
| 20260506012557 | 24 | 315 | 11.3 | 17.7 | 0.00 | 0.00 | 0.00 | 67 | 1005.5 |
| 20260506011517 | 24 | 293 | 3.2 | 8.0 | 0.00 | 0.00 | 0.00 | 67 | 1005.2 |
| 20260506010517 | 25 | 315 | 6.4 | 14.5 | 0.00 | 0.00 | 0.00 | 65 | 1005.2 |
| 20260506005517 | 25 | 293 | 9.7 | 20.9 | 0.00 | 0.00 | 0.00 | 65 | 1005.3 |
| 20260506004517 | 25 | 315 | 8.0 | 12.9 | 0.00 | 0.00 | 0.00 | 65 | 1004.7 |
| 20260506003557 | 25 | 315 | 8.0 | 17.7 | 0.00 | 0.00 | 0.00 | 64 | 1004.6 |
| 20260506002517 | 25 | 315 | 9.7 | 16.1 | 0.00 | 0.00 | 0.00 | 64 | 1004.8 |
| 20260506001517 | 26 | 315 | 6.4 | 17.7 | 0.00 | 0.00 | 0.00 | 63 | 1004.8 |
| 20260506000537 | 26 | 293 | 9.7 | 20.9 | 0.00 | 0.00 | 0.00 | 62 | 1005.0 |
| 20260505235517 | 27 | 293 | 12.9 | 20.9 | 0.00 | 0.00 | 0.00 | 61 | 1004.8 |
| 20260505234517 | 27 | 315 | 14.5 | 22.5 | 0.00 | 0.00 | 0.00 | 60 | 1004.5 |
| 20260505233537 | 28 | 315 | 11.3 | 20.9 | 0.00 | 0.00 | 0.00 | 59 | 1004.5 |
| 20260505232517 | 29 | 315 | 12.9 | 20.9 | 0.00 | 0.00 | 0.00 | 56 | 1004.2 |
| 20260505231517 | 30 | 293 | 9.7 | 16.1 | 0.00 | 0.00 | 0.00 | 51 | 1004.1 |
| 20260505230517 | 31 | 293 | 11.3 | 22.5 | 0.00 | 0.00 | 0.00 | 50 | 1003.9 |
| 20260505225517 | 32 | 293 | 4.8 | 11.3 | 0.00 | 0.00 | 0.00 | 53 | 1003.9 |
| 20260505224517 | 32 | 270 | 3.2 | 9.7 | 0.00 | 0.00 | 0.00 | 52 | 1003.8 |
| 20260505223517 | 32 | 270 | 4.8 | 9.7 | 0.00 | 0.00 | 0.00 | 51 | 1003.7 |
| 20260505222517 | 32 | 293 | 6.4 | 12.9 | 0.00 | 0.00 | 0.00 | 51 | 1003.8 |
| 20260505221517 | 32 | 293 | 1.6 | 12.9 | 0.00 | 0.00 | 0.00 | 48 | 1003.6 |
| 20260505220535 | 33 | 0.0 | 0.0 | 0.00 | 0.00 | 0.00 | 48 | 1003.5 | |
| 20260505215517 | 33 | 0.0 | 0.0 | 0.00 | 0.00 | 0.00 | 46 | 1003.6 | |
| 20260505214517 | 33 | 0.0 | 0.0 | 0.00 | 0.00 | 0.00 | 46 | 1003.7 | |
| 20260505213537 | 33 | 0.0 | 0.0 | 0.00 | 0.00 | 0.00 | 50 | 1003.7 | |
| 20260505212517 | 33 | 0.0 | 6.4 | 0.00 | 0.00 | 0.00 | 49 | 1003.8 | |
| 20260505211517 | 32 | 0.0 | 1.6 | 0.00 | 0.00 | 0.00 | 49 | 1003.9 | |
| 20260505210517 | 32 | 0.0 | 3.2 | 0.00 | 0.00 | 0.00 | 49 | 1004.2 | |
| 20260505205517 | 32 | 0.0 | 3.2 | 0.00 | 0.00 | 0.00 | 49 | 1004.2 | |
| 20260505204537 | 32 | 180 | 1.6 | 9.7 | 0.00 | 0.00 | 0.00 | 50 | 1004.6 |
| 20260505203517 | 32 | 0.0 | 3.2 | 0.00 | 0.00 | 0.00 | 52 | 1004.4 | |
| 20260505202517 | 32 | 158 | 1.6 | 6.4 | 0.00 | 0.00 | 0.00 | 53 | 1004.5 |
| 20260505201517 | 32 | 203 | 1.6 | 8.0 | 0.00 | 0.00 | 0.00 | 52 | 1004.8 |
| 20260505200517 | 32 | 158 | 3.2 | 16.1 | 0.00 | 0.00 | 0.00 | 57 | 1004.7 |
| 20260505194517 | 31 | 180 | 3.2 | 19.3 | 0.00 | 0.00 | 0.00 | 60 | 1004.8 |
| 20260505193517 | 30 | 203 | 3.2 | 14.5 | 0.00 | 0.00 | 0.00 | 61 | 1004.8 |
| 20260505192517 | 31 | 180 | 6.4 | 16.1 | 0.00 | 0.00 | 0.00 | 63 | 1004.9 |
| 20260505191537 | 30 | 180 | 6.4 | 22.5 | 0.00 | 0.00 | 0.00 | 61 | 1004.9 |
| 20260505190517 | 30 | 158 | 4.8 | 14.5 | 0.00 | 0.00 | 0.00 | 64 | 1005.0 |
| 20260505185517 | 30 | 180 | 3.2 | 11.3 | 0.00 | 0.00 | 0.00 | 65 | 1005.1 |
| 20260505184517 | 29 | 203 | 3.2 | 9.7 | 0.00 | 0.00 | 0.00 | 65 | 1005.3 |
| 20260505183517 | 29 | 180 | 6.4 | 17.7 | 0.00 | 0.00 | 0.00 | 67 | 1005.4 |
| 20260505182537 | 28 | 180 | 4.8 | 20.9 | 0.00 | 0.00 | 0.00 | 69 | 1005.3 |
| 20260505181537 | 28 | 180 | 4.8 | 14.5 | 0.00 | 0.00 | 0.00 | 68 | 1005.4 |
| 20260505180637 | 28 | 158 | 8.0 | 17.7 | 0.00 | 0.00 | 0.00 | 71 | 1005.4 |